timestamp,wind_dir_avg,wind_spd_avg,wind_spd_max_dir,wind_spd_gust,battery_voltage,lat,long
2023-06-30 00:04:00+00:00,206.0,6.7,210.0,7.36,12.73,47.59359,-54.27349
2023-06-30 00:14:01+00:00,203.0,6.66,204.0,7.2,12.41,47.59359,-54.27349
2023-06-30 00:24:01+00:00,197.0,7.21,197.0,7.72,12.41,47.59359,-54.27349
2023-06-30 00:34:01+00:00,187.0,5.83,191.0,5.98,12.41,47.59359,-54.27349
2023-06-30 00:44:01+00:00,195.0,6.92,196.0,7.42,12.41,47.59359,-54.27349
2023-06-30 00:54:01+00:00,206.0,5.5,205.0,6.15,12.41,47.59359,-54.27349
2023-06-30 01:04:01+00:00,203.0,5.17,206.0,5.56,12.41,47.59359,-54.27349
2023-06-30 01:14:00+00:00,202.0,5.1,205.0,5.71,12.41,47.59359,-54.27349
2023-06-30 01:24:00+00:00,199.0,5.27,201.0,5.89,12.41,47.59359,-54.27349
2023-06-30 01:34:00+00:00,193.0,6.25,195.0,7.1,12.41,47.59359,-54.27349
2023-06-30 01:44:00+00:00,201.0,5.66,204.0,6.42,12.41,47.59359,-54.27349
2023-06-30 01:54:00+00:00,207.0,6.32,213.0,7.01,12.41,47.59359,-54.27349
2023-06-30 02:04:00+00:00,205.0,5.84,208.0,6.66,12.41,47.59359,-54.27349
2023-06-30 02:14:00+00:00,211.0,4.96,210.0,5.6,12.33,47.59359,-54.27349
2023-06-30 02:24:00+00:00,215.0,4.19,219.0,5.15,12.33,47.59359,-54.27349
2023-06-30 02:34:00+00:00,210.0,5.01,215.0,5.83,12.33,47.59359,-54.27349
2023-06-30 02:44:00+00:00,202.0,4.6,202.0,5.23,12.33,47.59359,-54.27349
2023-06-30 02:54:00+00:00,201.0,4.66,206.0,5.19,12.33,47.59359,-54.27349
2023-06-30 03:04:00+00:00,201.0,4.78,202.0,5.58,12.33,47.59359,-54.27349
2023-06-30 03:14:01+00:00,202.0,4.08,203.0,4.67,12.33,47.59359,-54.27349
2023-06-30 03:24:01+00:00,201.0,4.89,201.0,5.58,12.33,47.59359,-54.27349
2023-06-30 03:34:01+00:00,190.0,5.1,195.0,5.72,12.33,47.59359,-54.27349
2023-06-30 03:44:01+00:00,187.0,5.13,188.0,5.44,12.33,47.59359,-54.27349
2023-06-30 03:54:01+00:00,194.0,5.0,195.0,5.83,12.33,47.59359,-54.27349
2023-06-30 04:04:01+00:00,195.0,5.13,196.0,5.71,12.33,47.59359,-54.27349
2023-06-30 04:14:00+00:00,188.0,5.44,187.0,6.37,12.33,47.59359,-54.27349
2023-06-30 04:24:00+00:00,185.0,5.62,185.0,6.17,12.33,47.59359,-54.27349
2023-06-30 04:34:00+00:00,183.0,6.19,182.0,6.76,12.33,47.59359,-54.27349
2023-06-30 04:44:00+00:00,184.0,5.46,181.0,5.99,12.33,47.59359,-54.27349
2023-06-30 04:54:00+00:00,179.0,6.21,181.0,6.73,12.33,47.59359,-54.27349
2023-06-30 05:04:00+00:00,184.0,6.26,187.0,6.83,12.33,47.59359,-54.27349
2023-06-30 05:14:01+00:00,187.0,6.67,190.0,7.57,12.33,47.59359,-54.27349
2023-06-30 05:24:01+00:00,184.0,5.74,182.0,6.23,12.33,47.59359,-54.27349
2023-06-30 05:34:01+00:00,189.0,5.64,193.0,6.31,12.33,47.59359,-54.27349
2023-06-30 05:44:01+00:00,188.0,5.43,192.0,6.27,12.33,47.59359,-54.27349
2023-06-30 05:54:01+00:00,188.0,5.95,190.0,6.53,12.33,47.59359,-54.27349
2023-06-30 06:04:01+00:00,183.0,6.28,184.0,6.73,12.33,47.59359,-54.27349
2023-06-30 06:14:01+00:00,178.0,6.65,177.0,7.38,12.25,47.59359,-54.27349
2023-06-30 06:24:01+00:00,180.0,6.99,182.0,7.46,12.25,47.59359,-54.27349
2023-06-30 06:34:01+00:00,186.0,6.24,182.0,6.8,12.25,47.59359,-54.27349
2023-06-30 06:44:01+00:00,182.0,5.85,186.0,6.6,12.25,47.59359,-54.27349
2023-06-30 06:54:01+00:00,176.0,4.55,178.0,5.36,12.25,47.59359,-54.27349
2023-06-30 07:04:01+00:00,192.0,4.18,197.0,4.68,12.25,47.59359,-54.27349
2023-06-30 07:14:01+00:00,185.0,4.28,187.0,4.77,12.25,47.59359,-54.27349
2023-06-30 07:24:01+00:00,191.0,5.34,192.0,5.72,12.25,47.59359,-54.27349
2023-06-30 07:34:01+00:00,200.0,5.23,202.0,5.69,12.25,47.59359,-54.27349
2023-06-30 07:44:01+00:00,194.0,5.12,198.0,5.71,12.25,47.59359,-54.27349
2023-06-30 07:54:01+00:00,184.0,5.4,187.0,5.94,12.25,47.59359,-54.27349
2023-06-30 08:04:01+00:00,183.0,5.13,184.0,5.64,12.25,47.59359,-54.27349
2023-06-30 08:14:01+00:00,190.0,4.34,190.0,5.22,12.17,47.59359,-54.27349
2023-06-30 08:24:01+00:00,199.0,5.07,201.0,5.88,12.17,47.59359,-54.27349
2023-06-30 08:34:01+00:00,206.0,6.01,211.0,6.54,12.17,47.59359,-54.27349
2023-06-30 08:44:01+00:00,214.0,7.46,220.0,8.68,12.17,47.59359,-54.27349
2023-06-30 08:54:01+00:00,219.0,6.34,216.0,7.01,12.17,47.59359,-54.27349
2023-06-30 09:04:01+00:00,221.0,5.71,223.0,6.53,12.17,47.59359,-54.27349
2023-06-30 09:14:00+00:00,224.0,4.76,226.0,5.12,12.25,47.59359,-54.27349
2023-06-30 09:24:00+00:00,226.0,4.6,226.0,5.0,12.25,47.59359,-54.27349
2023-06-30 09:34:00+00:00,232.0,3.18,238.0,3.68,12.25,47.59359,-54.27349
2023-06-30 09:44:00+00:00,233.0,2.7,233.0,2.79,12.25,47.59359,-54.27349
2023-06-30 09:54:00+00:00,216.0,2.39,212.0,2.9,12.25,47.59359,-54.27349
2023-06-30 10:04:00+00:00,195.0,2.62,201.0,2.82,12.25,47.59359,-54.27349
2023-06-30 10:14:01+00:00,183.0,4.32,184.0,4.7,12.89,47.59359,-54.27349
2023-06-30 10:24:01+00:00,193.0,5.47,193.0,6.02,12.89,47.59359,-54.27349
2023-06-30 10:34:01+00:00,200.0,4.97,203.0,5.31,12.89,47.59359,-54.27349
2023-06-30 10:44:01+00:00,195.0,5.49,200.0,6.16,12.89,47.59359,-54.27349
2023-06-30 10:54:01+00:00,198.0,5.48,199.0,5.99,12.89,47.59359,-54.27349
2023-06-30 11:04:01+00:00,193.0,5.29,195.0,5.71,12.89,47.59359,-54.27349
2023-06-30 11:14:00+00:00,198.0,5.14,199.0,5.77,13.29,47.59359,-54.27349
2023-06-30 11:24:00+00:00,204.0,4.67,211.0,5.36,13.29,47.59359,-54.27349
2023-06-30 11:34:00+00:00,206.0,5.84,209.0,6.66,13.29,47.59359,-54.27349
2023-06-30 11:44:00+00:00,210.0,5.3,212.0,5.77,13.29,47.59359,-54.27349
2023-06-30 11:54:00+00:00,185.0,4.4,190.0,4.91,13.29,47.59359,-54.27349
2023-06-30 12:04:00+00:00,184.0,3.91,188.0,4.17,13.29,47.59359,-54.27349
2023-06-30 12:14:01+00:00,201.0,2.75,209.0,3.04,13.44,47.59359,-54.27349
2023-06-30 12:24:01+00:00,185.0,3.87,194.0,4.23,13.44,47.59359,-54.27349
2023-06-30 12:34:01+00:00,204.0,4.96,203.0,5.12,13.44,47.59359,-54.27349
2023-06-30 12:44:01+00:00,196.0,6.03,196.0,6.31,13.44,47.59359,-54.27349
2023-06-30 12:54:01+00:00,200.0,5.98,207.0,7.14,13.44,47.59359,-54.27349
2023-06-30 13:04:01+00:00,209.0,8.3,210.0,8.86,13.44,47.59359,-54.27349
2023-06-30 13:14:00+00:00,213.0,7.56,213.0,7.96,13.68,47.59359,-54.27349
2023-06-30 13:24:00+00:00,202.0,6.7,201.0,7.44,13.68,47.59359,-54.27349
2023-06-30 13:34:00+00:00,210.0,7.19,210.0,8.16,13.68,47.59359,-54.27349
2023-06-30 13:44:00+00:00,211.0,6.59,213.0,7.21,13.68,47.59359,-54.27349
2023-06-30 13:54:00+00:00,215.0,5.68,217.0,5.96,13.68,47.59359,-54.27349
2023-06-30 14:04:00+00:00,213.0,5.67,213.0,6.14,13.68,47.59359,-54.27349
2023-06-30 14:14:00+00:00,213.0,5.18,213.0,5.77,13.68,47.59359,-54.27349
2023-06-30 14:24:00+00:00,219.0,4.57,218.0,5.1,13.68,47.59359,-54.27349
2023-06-30 14:34:00+00:00,211.0,4.58,213.0,4.87,13.68,47.59359,-54.27349
2023-06-30 14:44:00+00:00,210.0,4.84,210.0,5.29,13.68,47.59359,-54.27349
2023-06-30 14:54:00+00:00,207.0,4.93,208.0,5.45,13.68,47.59359,-54.27349
2023-06-30 15:04:00+00:00,212.0,4.09,210.0,4.62,13.68,47.59359,-54.27349
2023-06-30 15:14:01+00:00,210.0,5.41,209.0,5.91,13.68,47.59359,-54.27349
2023-06-30 15:24:01+00:00,211.0,5.78,214.0,6.25,13.68,47.59359,-54.27349
2023-06-30 15:34:01+00:00,211.0,5.61,213.0,6.14,13.68,47.59359,-54.27349
2023-06-30 15:44:01+00:00,218.0,7.25,227.0,9.22,13.68,47.59359,-54.27349
2023-06-30 15:54:01+00:00,220.0,8.04,235.0,11.27,13.68,47.59359,-54.27349
2023-06-30 16:04:01+00:00,214.0,7.21,218.0,8.35,13.68,47.59359,-54.27349
2023-06-30 16:14:00+00:00,209.0,6.79,208.0,7.42,13.76,47.59359,-54.27349
2023-06-30 16:24:00+00:00,211.0,6.38,212.0,6.77,13.76,47.59359,-54.27349
2023-06-30 16:34:00+00:00,211.0,7.12,210.0,7.49,13.76,47.59359,-54.27349
2023-06-30 16:44:00+00:00,209.0,6.63,213.0,7.26,13.76,47.59359,-54.27349
2023-06-30 16:54:00+00:00,221.0,7.99,228.0,10.17,13.76,47.59359,-54.27349
2023-06-30 17:04:00+00:00,202.0,5.87,202.0,6.42,13.76,47.59359,-54.27349
2023-06-30 17:14:00+00:00,197.0,6.81,195.0,7.41,13.68,47.59359,-54.27349
2023-06-30 17:24:00+00:00,205.0,8.31,203.0,9.14,13.68,47.59359,-54.27349
2023-06-30 17:34:00+00:00,205.0,9.35,204.0,10.06,13.68,47.59359,-54.27349
2023-06-30 17:44:00+00:00,208.0,8.3,220.0,10.46,13.68,47.59359,-54.27349
2023-06-30 17:54:00+00:00,203.0,7.83,199.0,8.96,13.68,47.59359,-54.27349
2023-06-30 18:04:00+00:00,206.0,7.59,208.0,8.2,13.68,47.59359,-54.27349
2023-06-30 18:14:00+00:00,206.0,7.4,214.0,7.97,13.76,47.59359,-54.27349
2023-06-30 18:24:00+00:00,214.0,7.79,215.0,7.8,13.76,47.59359,-54.27349
2023-06-30 18:34:00+00:00,212.0,7.61,215.0,8.69,13.76,47.59359,-54.27349
2023-06-30 18:44:00+00:00,212.0,7.26,213.0,7.27,13.76,47.59359,-54.27349
2023-06-30 18:54:00+00:00,315.0,0.01,198.0,0.0,13.76,47.59359,-54.27349
2023-06-30 19:04:00+00:00,207.0,6.56,209.0,6.63,13.76,47.59359,-54.27349
2023-06-30 19:14:00+00:00,315.0,0.01,213.0,0.0,13.68,47.59359,-54.27349
2023-06-30 19:24:00+00:00,315.0,0.01,216.0,0.0,13.68,47.59359,-54.27349
2023-06-30 19:34:00+00:00,315.0,0.01,216.0,0.0,13.68,47.59359,-54.27349
2023-06-30 19:44:00+00:00,315.0,0.01,216.0,0.0,13.68,47.59359,-54.27349
2023-06-30 19:54:00+00:00,205.0,7.49,209.0,8.26,13.68,47.59359,-54.27349
2023-06-30 20:04:00+00:00,315.0,0.01,213.0,0.0,13.68,47.59359,-54.27349
2023-06-30 20:14:00+00:00,200.0,6.27,201.0,6.47,13.68,47.59359,-54.27349
2023-06-30 20:24:00+00:00,315.0,0.01,212.0,0.0,13.68,47.59359,-54.27349
2023-06-30 20:34:00+00:00,212.0,7.56,212.0,7.78,13.68,47.59359,-54.27349
2023-06-30 20:44:00+00:00,208.0,6.44,200.0,8.9,13.68,47.59359,-54.27349
2023-06-30 20:54:00+00:00,220.0,6.44,218.0,7.07,13.68,47.59359,-54.27349
2023-06-30 21:04:00+00:00,213.0,7.42,218.0,8.01,13.68,47.59359,-54.27349
2023-06-30 21:14:01+00:00,214.0,6.37,216.0,6.85,13.37,47.59359,-54.27349
2023-06-30 21:24:01+00:00,208.0,7.51,209.0,7.96,13.37,47.59359,-54.27349
2023-06-30 21:34:01+00:00,215.0,7.24,215.0,7.68,13.37,47.59359,-54.27349
2023-06-30 21:44:01+00:00,209.0,5.61,212.0,6.15,13.37,47.59359,-54.27349
2023-06-30 21:54:01+00:00,207.0,5.51,206.0,6.05,13.37,47.59359,-54.27349
2023-06-30 22:04:01+00:00,206.0,5.52,205.0,6.18,13.37,47.59359,-54.27349
2023-06-30 22:14:00+00:00,207.0,6.39,208.0,6.88,13.05,47.59359,-54.27349
2023-06-30 22:24:00+00:00,203.0,6.64,202.0,7.61,13.05,47.59359,-54.27349
2023-06-30 22:34:00+00:00,202.0,6.41,200.0,6.69,13.05,47.59359,-54.27349
2023-06-30 22:44:00+00:00,203.0,6.55,204.0,7.34,13.05,47.59359,-54.27349
2023-06-30 22:54:00+00:00,315.0,0.01,204.0,0.0,13.05,47.59359,-54.27349
2023-06-30 23:04:00+00:00,210.0,6.06,211.0,6.07,13.05,47.59359,-54.27349
2023-06-30 23:14:00+00:00,213.0,7.81,212.0,8.46,12.57,47.59359,-54.27349
2023-06-30 23:24:00+00:00,228.0,8.74,232.0,10.0,12.57,47.59359,-54.27349
2023-06-30 23:34:00+00:00,222.0,10.07,228.0,11.58,12.57,47.59359,-54.27349
2023-06-30 23:44:00+00:00,211.0,6.85,211.0,7.34,12.57,47.59359,-54.27349
2023-06-30 23:54:00+00:00,221.0,7.08,216.0,7.86,12.57,47.59359,-54.27349
